| time (UTC) | temp F | wind direction | speed MPH | gust MPH | rain 1hr in | rain 24hr in | rain mn in | humidity % | barometer mb |
| 20260507223421 | 76 | 253 | 5.0 | 4.0 | 0.00 | 0.00 | 0.00 | ||
| 20260507221921 | 77 | 248 | 2.0 | 9.0 | 0.00 | 0.00 | 0.00 | ||
| 20260507220422 | 76 | 231 | 6.0 | 5.0 | 0.00 | 0.00 | 0.00 | ||
| 20260507214922 | 76 | 321 | 6.0 | 4.0 | 0.00 | 0.00 | 0.00 | ||
| 20260507213423 | 76 | 236 | 6.0 | 5.0 | 0.00 | 0.00 | 0.00 | ||
| 20260507211922 | 75 | 187 | 7.0 | 4.0 | 0.00 | 0.00 | 0.00 | ||
| 20260507210423 | 73 | 243 | 5.0 | 6.0 | 0.00 | 0.00 | 0.00 | ||
| 20260507204923 | 74 | 269 | 5.0 | 1.0 | 0.00 | 0.00 | 0.00 | ||
| 20260507201924 | 73 | 245 | 7.0 | 6.0 | 0.00 | 0.00 | 0.00 | ||
| 20260507200424 | 73 | 228 | 5.0 | 3.0 | 0.00 | 0.00 | 0.00 | ||
| 20260507194925 | 73 | 245 | 3.0 | 5.0 | 0.00 | 0.00 | 0.00 | ||
| 20260507193425 | 71 | 246 | 2.0 | 0.0 | 0.00 | 0.00 | 0.00 | ||
| 20260507190426 | 70 | 298 | 9.0 | 2.0 | 0.00 | 0.00 | 0.00 | ||
| 20260507184927 | 69 | 250 | 1.0 | 1.0 | 0.00 | 0.00 | 0.00 | ||
| 20260507183427 | 69 | 294 | 2.0 | 1.0 | 0.00 | 0.00 | 0.00 | ||
| 20260507181928 | 67 | 232 | 0.0 | 0.0 | 0.00 | 0.00 | 0.00 | ||
| 20260507180428 | 67 | 191 | 2.0 | 6.0 | 0.00 | 0.00 | 0.00 | ||
| 20260507174929 | 68 | 210 | 3.0 | 2.0 | 0.00 | 0.00 | 0.00 | ||
| 20260507173430 | 66 | 245 | 0.0 | 0.0 | 0.00 | 0.00 | 0.00 | ||
| 20260507171930 | 66 | 232 | 1.0 | 0.0 | 0.00 | 0.00 | 0.00 | ||
| 20260507170431 | 65 | 295 | 4.0 | 1.0 | 0.00 | 0.00 | 0.00 | ||
| 20260507164932 | 66 | 222 | 0.0 | 0.0 | 0.00 | 0.00 | 0.00 | ||
| 20260507163433 | 67 | 188 | 2.0 | 3.0 | 0.00 | 0.00 | 0.00 | ||
| 20260507161934 | 66 | 153 | 0.0 | 0.0 | 0.00 | 0.00 | 0.00 | ||
| 20260507160435 | 65 | 107 | 0.0 | 0.0 | 0.00 | 0.00 | 0.00 | ||
| 20260507154936 | 65 | 6 | 0.0 | 0.0 | 0.00 | 0.00 | 0.00 | ||
| 20260507151938 | 63 | 75 | 0.0 | 0.0 | 0.00 | 0.00 | 0.00 | ||
| 20260507150439 | 62 | 101 | 0.0 | 0.0 | 0.00 | 0.00 | 0.00 | ||
| 20260507144941 | 59 | 72 | 1.0 | 2.0 | 0.00 | 0.00 | 0.00 | ||
| 20260507143442 | 56 | 108 | 2.0 | 2.0 | 0.00 | 0.00 | 0.00 | ||
| 20260507141943 | 54 | 68 | 4.0 | 2.0 | 0.00 | 0.00 | 0.00 | ||
| 20260507140445 | 53 | 60 | 3.0 | 2.0 | 0.00 | 0.00 | 0.00 | ||
| 20260507134946 | 51 | 101 | 3.0 | 4.0 | 0.00 | 0.00 | 0.00 | ||
| 20260507133448 | 49 | 103 | 4.0 | 3.0 | 0.00 | 0.00 | 0.00 | ||
| 20260507131949 | 48 | 139 | 3.0 | 1.0 | 0.00 | 0.00 | 0.00 | ||
| 20260507130450 | 46 | 114 | 4.0 | 6.0 | 0.00 | 0.00 | 0.00 | ||
| 20260507124955 | 44 | 101 | 4.0 | 5.0 | 0.00 | 0.00 | 0.00 | ||
| 20260507123454 | 41 | 100 | 4.0 | 3.0 | 0.00 | 0.00 | 0.00 | ||
| 20260507120456 | 38 | 113 | 5.0 | 2.0 | 0.00 | 0.00 | 0.00 | ||
| 20260507114958 | 39 | 128 | 4.0 | 4.0 | 0.00 | 0.00 | 0.00 | ||
| 20260507112001 | 39 | 108 | 4.0 | 5.0 | 0.00 | 0.00 | 0.00 | ||
| 20260507110503 | 38 | 125 | 2.0 | 2.0 | 0.00 | 0.00 | 0.00 | ||
| 20260507105004 | 39 | 128 | 2.0 | 2.0 | 0.00 | 0.00 | 0.00 | ||
| 20260507103506 | 39 | 59 | 5.0 | 6.0 | 0.00 | 0.00 | 0.00 | ||
| 20260507102007 | 39 | 118 | 2.0 | 3.0 | 0.00 | 0.00 | 0.00 | ||
| 20260507100509 | 38 | 111 | 4.0 | 4.0 | 0.00 | 0.00 | 0.00 | ||
| 20260507095010 | 38 | 93 | 3.0 | 3.0 | 0.00 | 0.00 | 0.00 | ||
| 20260507093512 | 38 | 118 | 3.0 | 3.0 | 0.00 | 0.00 | 0.00 | ||
| 20260507092013 | 38 | 131 | 4.0 | 3.0 | 0.00 | 0.00 | 0.00 | ||
| 20260507090515 | 39 | 124 | 4.0 | 4.0 | 0.00 | 0.00 | 0.00 | ||
| 20260507085017 | 39 | 111 | 6.0 | 5.0 | 0.00 | 0.00 | 0.00 | ||
| 20260507083519 | 38 | 111 | 5.0 | 3.0 | 0.00 | 0.00 | 0.00 | ||
| 20260507082019 | 39 | 110 | 6.0 | 5.0 | 0.00 | 0.00 | 0.00 | ||
| 20260507075022 | 39 | 86 | 4.0 | 4.0 | 0.00 | 0.00 | 0.00 | ||
| 20260507073523 | 40 | 70 | 4.0 | 3.0 | 0.00 | 0.00 | 0.00 | ||
| 20260507072024 | 40 | 80 | 4.0 | 7.0 | 0.00 | 0.00 | 0.00 | ||
| 20260507070526 | 41 | 136 | 4.0 | 2.0 | 0.00 | 0.00 | 0.00 | ||
| 20260507065027 | 40 | 118 | 3.0 | 3.0 | 0.00 | 0.00 | 0.00 | ||
| 20260507063528 | 41 | 82 | 4.0 | 4.0 | 0.00 | 0.00 | 0.00 | ||
| 20260507062029 | 41 | 86 | 5.0 | 3.0 | 0.00 | 0.00 | 0.00 | ||
| 20260507060530 | 43 | 66 | 8.0 | 7.0 | 0.00 | 0.00 | 0.00 | ||
| 20260507055031 | 43 | 76 | 6.0 | 5.0 | 0.00 | 0.00 | 0.00 | ||
| 20260507053532 | 44 | 108 | 5.0 | 5.0 | 0.00 | 0.00 | 0.00 | ||
| 20260507043537 | 48 | 68 | 4.0 | 3.0 | 0.00 | 0.00 | 0.00 | ||
| 20260507042038 | 49 | 101 | 2.0 | 2.0 | 0.00 | 0.00 | 0.00 | ||
| 20260507040539 | 51 | 69 | 5.0 | 6.0 | 0.00 | 0.00 | 0.00 | ||
| 20260507035040 | 53 | 118 | 0.0 | 0.0 | 0.00 | 0.00 | 0.00 | ||
| 20260507033541 | 56 | 107 | 1.0 | 4.0 | 0.00 | 0.00 | 0.00 | ||
| 20260507030543 | 59 | 75 | 5.0 | 3.0 | 0.00 | 0.00 | 0.00 | ||
| 20260507025043 | 60 | 136 | 4.0 | 4.0 | 0.00 | 0.00 | 0.00 | ||
| 20260507023544 | 62 | 127 | 4.0 | 6.0 | 0.00 | 0.00 | 0.00 | ||
| 20260507022045 | 62 | 207 | 4.0 | 2.0 | 0.00 | 0.00 | 0.00 | ||
| 20260507020546 | 62 | 259 | 0.0 | 0.0 | 0.00 | 0.00 | 0.00 | ||
| 20260507015046 | 64 | 270 | 2.0 | 3.0 | 0.00 | 0.00 | 0.00 | ||
| 20260507013547 | 64 | 257 | 3.0 | 2.0 | 0.00 | 0.00 | 0.00 | ||
| 20260507012048 | 65 | 259 | 1.0 | 1.0 | 0.00 | 0.00 | 0.00 | ||
| 20260507010548 | 64 | 250 | 3.0 | 2.0 | 0.00 | 0.00 | 0.00 | ||
| 20260507005048 | 65 | 239 | 3.0 | 5.0 | 0.00 | 0.00 | 0.00 | ||
| 20260507002049 | 69 | 211 | 6.0 | 5.0 | 0.00 | 0.00 | 0.00 | ||
| 20260507000549 | 70 | 257 | 6.0 | 9.0 | 0.00 | 0.00 | 0.00 | ||
| 20260506235050 | 71 | 201 | 5.0 | 6.0 | 0.00 | 0.00 | 0.00 | ||
| 20260506233550 | 69 | 276 | 5.0 | 3.0 | 0.00 | 0.00 | 0.00 | ||
| 20260506232050 | 72 | 278 | 5.0 | 3.0 | 0.00 | 0.00 | 0.00 | ||
| 20260506230551 | 73 | 249 | 7.0 | 11.0 | 0.00 | 0.00 | 0.00 | ||
| 20260506225051 | 71 | 262 | 9.0 | 8.0 | 0.00 | 0.00 | 0.00 |